GW3047 Weather Reports


Display with metric or nautical units.
time (UTC)temp
F
wind
direction
speed
MPH
gust
MPH
rain 1hr
in
rain 24hr
in
rain mn
in
humidity
%
barometer
mb
20260502200059 72 0 3.0 8.0 0.00 0.00 0.00 25 1019.9
20260502194558 73 203 3.0 6.0 0.00 0.00 0.00 24 1020.1
20260502193056 73 147 0.0 3.0 0.00 0.00 0.00 25 1020.4
20260502191602 70 326 2.0 7.0 0.00 0.00 0.00 27 1020.5
20260502190056 69 69 2.0 7.0 0.00 0.00 0.00 27 1020.9
20260502184556 69 233 3.0 10.0 0.00 0.00 0.00 28 1021.1
20260502183056 68 207 2.0 7.0 0.00 0.00 0.00 30 1021.4
20260502181600 67 111 3.0 10.0 0.00 0.00 0.00 34 1021.7
20260502163102 62 168 3.0 10.0 0.00 0.00 0.00 41 1022.2
20260502161601 62 0 2.0 6.0 0.00 0.00 0.00 43 1022.1
20260502151600 57 139 2.0 7.0 0.00 0.00 0.00 50 1022.2
20260502150110 55 101 2.0 11.0 0.00 0.00 0.00 54 1022.2
20260502130110 41 68 2.0 6.0 0.00 0.00 0.00 84 1021.4
20260502123103 38 42 1.0 5.0 0.00 0.00 0.00 83 1021.1
20260502121559 38 342 1.0 3.0 0.00 0.00 0.00 82 1021.1
20260502120104 38 352 0.0 4.0 0.00 0.00 0.00 81 1021.0
20260502114558 39 0 0.0 5.0 0.00 0.00 0.00 80 1020.8
20260502113058 39 0 0.0 3.0 0.00 0.00 0.00 79 1020.8
20260502111558 40 0 0.0 2.0 0.00 0.00 0.00 79 1020.7
20260502110057 41 0 0.0 3.0 0.00 0.00 0.00 79 1020.5
20260502104558 41 0 0.0 1.0 0.00 0.00 0.00 79 1020.4
20260502103058 41 0 0.0 3.0 0.00 0.00 0.00 79 1020.3
20260502101556 41 0 0.0 3.0 0.00 0.00 0.00 79 1020.3
20260502080106 43 84 1.0 7.0 0.00 0.00 0.00 79 1019.4
20260502070055 44 87 3.0 6.0 0.00 0.00 0.00 77 1019.9
20260502064559 44 70 1.0 9.0 0.00 0.00 0.00 77 1019.8
20260502063120 45 95 1.0 7.0 0.00 0.00 0.00 76 1020.0
20260502061558 45 70 2.0 5.0 0.00 0.00 0.00 74 1019.8
20260502054608 47 50 0.0 3.0 0.00 0.00 0.00 68 1019.7
20260502053103 48 0 0.0 4.0 0.00 0.00 0.00 64 1019.7
20260502051558 50 0 0.0 3.0 0.00 0.00 0.00 61 1019.5
20260502044559 52 0 0.0 3.0 0.00 0.00 0.00 56 1019.3
20260502043102 53 75 1.0 4.0 0.00 0.00 0.00 54 1019.5
20260502041601 53 76 0.0 3.0 0.00 0.00 0.00 51 1019.4
20260502033058 56 72 1.0 9.0 0.00 0.00 0.00 46 1018.9
20260502031556 58 216 2.0 8.0 0.00 0.00 0.00 45 1018.3
20260502030056 58 208 1.0 4.0 0.00 0.00 0.00 43 1018.2
20260502024607 59 203 3.0 6.0 0.00 0.00 0.00 41 1018.2
20260502023057 59 202 0.0 5.0 0.00 0.00 0.00 39 1017.9
20260502021558 60 201 1.0 4.0 0.00 0.00 0.00 38 1017.6
20260502020058 61 196 2.0 5.0 0.00 0.00 0.00 36 1017.5
20260502014600 61 201 3.0 9.0 0.00 0.00 0.00 35 1017.4
20260502013100 62 190 3.0 7.0 0.00 0.00 0.00 34 1017.2
20260502011557 63 195 3.0 6.0 0.00 0.00 0.00 32 1017.1
20260502010055 63 207 2.0 6.0 0.00 0.00 0.00 31 1017.1
20260502004600 64 239 2.0 8.0 0.00 0.00 0.00 31 1017.0
20260502003056 64 245 3.0 6.0 0.00 0.00 0.00 29 1017.0
20260502001556 65 243 4.0 11.0 0.00 0.00 0.00 29 1017.1
20260501234558 66 235 2.0 8.0 0.00 0.00 0.00 28 1017.1
20260501233108 67 210 4.0 7.0 0.00 0.00 0.00 28 1017.1
20260501231638 67 229 2.0 16.0 0.00 0.00 0.00 27 1017.0
20260501224603 66 193 6.0 12.0 0.00 0.00 0.00 27 1017.0
20260501223105 68 235 4.0 13.0 0.00 0.00 0.00 25 1017.0
20260501220058 68 231 3.0 10.0 0.00 0.00 0.00 27 1017.0
20260501214556 67 241 1.0 5.0 0.00 0.00 0.00 27 1017.2
20260501213105 67 197 4.0 9.0 0.00 0.00 0.00 27 1017.4
20260501211612 67 0 4.0 12.0 0.00 0.00 0.00 25 1017.8
20260501210103 67 251 5.0 9.0 0.00 0.00 0.00 28 1018.1
20260501204600 67 220 2.0 12.0 0.00 0.00 0.00 27 1018.3
20260501203056 66 241 3.0 9.0 0.00 0.00 0.00 27 1018.4
20260501201557 65 339 2.0 8.0 0.00 0.00 0.00 28 1018.6